GW5607 Weather Reports


time (UTC)temp
C
wind
direction
speed
KPH
gust
KPH
rain 1hr
cm
rain 24hr
cm
rain mn
cm
humidity
%
barometer
mb
20260906035835 27 167 0.0 0.0 0.00 0.00 0.00 80 1011.7
20260906035330 27 167 0.0 0.0 0.00 0.00 0.00 81 1012.0
20260906034827 27 163 0.0 0.0 0.00 0.00 0.00 82 1011.7
20260906034326 27 166 0.0 0.0 0.00 0.00 0.00 81 1011.6
20260906033822 27 165 0.0 0.0 0.00 0.00 0.00 81 1011.7
20260906033321 27 165 0.0 0.0 0.00 0.00 0.00 81 1011.8
20260906032818 27 163 0.0 0.0 0.00 0.00 0.00 82 1011.7
20260906032313 27 164 0.0 0.0 0.00 0.00 0.00 81 1011.6
20260906031808 27 169 0.0 0.0 0.00 0.00 0.00 80 1011.7
20260906031304 27 169 0.0 0.0 0.00 0.00 0.00 81 1011.6
20260906030803 27 169 0.0 0.0 0.00 0.00 0.00 80 1011.6
20260906030259 27 169 0.0 0.0 0.00 0.00 0.00 81 1011.8
20260906025759 27 169 0.0 0.0 0.00 0.00 0.00 81 1011.8
20260906025253 28 168 0.0 0.0 0.00 0.00 0.00 80 1011.8
20260906024752 28 167 0.0 0.0 0.00 0.00 0.00 79 1011.7
20260906024251 28 167 0.0 0.0 0.00 0.00 0.00 79 1011.5
20260906023747 28 167 0.0 0.0 0.00 0.00 0.00 78 1011.5
20260906023242 28 167 0.0 0.0 0.00 0.00 0.00 78 1011.6
20260906022738 28 167 0.0 0.0 0.00 0.00 0.00 77 1011.4
20260906022233 28 165 0.0 0.0 0.00 0.00 0.00 78 1011.5
20260906021729 28 165 0.0 0.0 0.00 0.00 0.00 78 1011.3
20260906021227 28 165 0.0 0.0 0.00 0.00 0.00 79 1011.3
20260906020722 28 165 0.0 0.0 0.00 0.00 0.00 79 1011.1
20260906020217 28 165 0.0 0.0 0.00 0.00 0.00 78 1011.2
20260906015712 28 165 0.0 0.0 0.00 0.00 0.00 78 1011.0
20260906015210 28 166 0.0 0.0 0.00 0.00 0.00 78 1010.9
20260906014710 28 166 0.0 0.0 0.00 0.00 0.00 78 1011.0
20260906014207 28 166 0.0 0.0 0.00 0.00 0.00 78 1011.0
20260906013702 29 165 0.0 0.0 0.00 0.00 0.00 77 1010.8
20260906013157 29 162 0.0 0.0 0.00 0.00 0.00 75 1010.9
20260906012658 29 181 0.0 0.0 0.00 0.00 0.00 75 1010.7
20260906012157 30 161 0.0 0.0 0.00 0.00 0.00 75 1010.7
20260906011653 30 161 0.0 0.0 0.00 0.00 0.00 74 1010.8
20260906011148 30 165 0.0 0.0 0.00 0.00 0.00 73 1010.8
20260906010643 30 165 0.0 0.0 0.00 0.00 0.00 73 1010.8
20260906010139 30 165 0.0 0.0 0.00 0.00 0.00 72 1010.7
20260906005639 30 167 0.0 0.0 0.00 0.00 0.00 71 1010.6
20260906005138 30 167 0.0 0.0 0.00 0.00 0.00 69 1010.8
20260906004637 31 167 0.0 0.0 0.00 0.00 0.00 70 1010.6
20260906004132 31 167 0.0 0.0 0.00 0.00 0.00 70 1010.6
20260906003627 31 167 0.0 0.0 0.00 0.00 0.00 68 1010.6
20260906003123 31 166 0.0 0.0 0.00 0.00 0.00 66 1010.3
20260906002618 31 166 0.0 0.0 0.00 0.00 0.00 69 1010.5
20260906002113 32 166 0.0 0.0 0.00 0.00 0.00 68 1010.3
20260906001608 32 166 0.0 0.0 0.00 0.00 0.00 66 1010.5
20260906001102 32 166 0.0 0.0 0.00 0.00 0.00 65 1010.6
20260906000558 32 164 0.0 0.0 0.00 0.00 0.00 63 1010.8
20260906000053 33 165 0.0 0.0 0.00 0.00 0.00 63 1010.8
20260905235552 33 168 0.0 0.0 0.00 0.00 0.00 60 1010.8
20260905235048 33 168 0.0 0.0 0.00 0.00 0.00 60 1011.0
20260905234543 34 170 0.0 0.0 0.00 0.00 0.00 60 1011.0
20260905234038 35 166 0.0 0.0 0.00 0.00 0.00 59 1011.0
20260905233538 35 168 0.0 0.0 0.00 0.00 0.00 57 1011.0
20260905233038 35 169 0.0 0.0 0.00 0.00 0.00 55 1010.9
20260905232533 35 169 0.0 0.0 0.00 0.00 0.00 52 1011.1
20260905232029 36 170 0.0 0.0 0.00 0.00 0.00 50 1010.9
20260905231524 36 169 0.0 0.0 0.00 0.00 0.00 48 1011.0
20260905231021 36 174 0.0 0.0 0.00 0.00 0.00 48 1010.9
20260905230519 36 162 0.0 0.0 0.00 0.00 0.00 47 1010.8
20260905230018 37 162 1.6 1.6 0.00 0.00 0.00 44 1010.8
20260905225513 37 174 0.0 0.0 0.00 0.00 0.00 44 1010.9
20260905225008 38 169 0.0 1.6 0.00 0.00 0.00 41 1010.7
20260905224503 38 176 0.0 0.0 0.00 0.00 0.00 39 1010.8
20260905224002 37 174 0.0 0.0 0.00 0.00 0.00 41 1010.6
20260905223500 38 174 0.0 0.0 0.00 0.00 0.00 43 1010.8
20260905222955 38 176 0.0 1.6 0.00 0.00 0.00 41 1010.7
20260905222455 38 174 0.0 0.0 0.00 0.00 0.00 42 1010.6
20260905221950 37 159 0.0 0.0 0.00 0.00 0.00 41 1010.8
20260905221447 38 173 0.0 0.0 0.00 0.00 0.00 41 1010.8
20260905220943 38 178 0.0 0.0 0.00 0.00 0.00 42 1010.9
20260905220439 38 177 0.0 0.0 0.00 0.00 0.00 42 1011.0
20260905215938 38 183 1.6 1.6 0.00 0.00 0.00 42 1010.9
20260905215433 39 173 0.0 0.0 0.00 0.00 0.00 42 1010.9
20260905214930 39 172 0.0 0.0 0.00 0.00 0.00 44 1011.0
20260905214426 39 189 1.6 1.6 0.00 0.00 0.00 40 1010.9
20260905213925 39 177 0.0 0.0 0.00 0.00 0.00 41 1010.9
20260905213422 39 173 0.0 1.6 0.00 0.00 0.00 39 1010.9
20260905212917 39 178 0.0 0.0 0.00 0.00 0.00 39 1011.1
20260905212412 40 176 0.0 0.0 0.00 0.00 0.00 41 1011.0
20260905211911 39 178 0.0 0.0 0.00 0.00 0.00 40 1011.1
20260905211407 39 181 0.0 0.0 0.00 0.00 0.00 39 1011.0
20260905210903 40 176 0.0 1.6 0.00 0.00 0.00 38 1011.0
20260905210402 40 177 0.0 0.0 0.00 0.00 0.00 39 1011.2
20260905205902 40 178 0.0 0.0 0.00 0.00 0.00 40 1011.0
20260905205357 40 185 1.6 1.6 0.00 0.00 0.00 41 1011.1
20260905204855 39 182 0.0 0.0 0.00 0.00 0.00 38 1011.1
20260905204352 39 182 0.0 0.0 0.00 0.00 0.00 39 1011.4
20260905203850 39 179 0.0 0.0 0.00 0.00 0.00 38 1011.4
20260905203346 40 182 1.6 1.6 0.00 0.00 0.00 39 1011.4
20260905202842 39 177 0.0 0.0 0.00 0.00 0.00 38 1011.5
20260905202337 39 163 1.6 1.6 0.00 0.00 0.00 39 1011.6
20260905201833 40 182 1.6 1.6 0.00 0.00 0.00 38 1011.5
20260905201328 39 178 0.0 0.0 0.00 0.00 0.00 39 1011.7
20260905200828 39 158 0.0 1.6 0.00 0.00 0.00 37 1011.7
20260905200325 39 171 0.0 0.0 0.00 0.00 0.00 42 1012.0
20260905195821 39 172 1.6 3.2 0.00 0.00 0.00 41 1012.0
20260905195317 38 178 0.0 1.6 0.00 0.00 0.00 40 1012.0
20260905194813 38 189 0.0 1.6 0.00 0.00 0.00 40 1012.2
20260905194312 37 198 3.2 3.2 0.00 0.00 0.00 41 1012.2
20260905193812 38 109 6.4 6.4 0.00 0.00 0.00 40 1012.4
20260905193307 38 163 1.6 1.6 0.00 0.00 0.00 44 1012.4
20260905192802 38 175 1.6 1.6 0.00 0.00 0.00 40 1012.6
20260905192258 38 148 1.6 1.6 0.00 0.00 0.00 41 1012.6
20260905191757 38 212 3.2 3.2 0.00 0.00 0.00 38 1012.7
20260905191256 38 176 0.0 0.0 0.00 0.00 0.00 42 1012.7
20260905190755 38 170 1.6 1.6 0.00 0.00 0.00 40 1012.8
20260905190254 38 174 1.6 1.6 0.00 0.00 0.00 40 1012.7
20260905185753 38 181 1.6 1.6 0.00 0.00 0.00 43 1012.9
20260905185249 38 199 3.2 4.8 0.00 0.00 0.00 42 1013.1
20260905184748 38 156 1.6 1.6 0.00 0.00 0.00 42 1013.0
20260905184247 38 171 0.0 1.6 0.00 0.00 0.00 41 1013.0
20260905183741 38 168 1.6 1.6 0.00 0.00 0.00 41 1013.2
20260905183237 37 186 1.6 1.6 0.00 0.00 0.00 40 1013.1
20260905182736 37 31 1.6 3.2 0.00 0.00 0.00 41 1013.0
20260905182236 37 145 3.2 3.2 0.00 0.00 0.00 40 1013.1
20260905181731 37 140 1.6 1.6 0.00 0.00 0.00 42 1013.1
20260905181230 37 97 0.0 0.0 0.00 0.00 0.00 44 1013.0
20260905180725 37 184 0.0 0.0 0.00 0.00 0.00 42 1013.3
20260905180220 38 208 3.2 3.2 0.00 0.00 0.00 41 1013.5
20260905175720 37 177 0.0 1.6 0.00 0.00 0.00 40 1013.2
20260905175215 37 182 0.0 1.6 0.00 0.00 0.00 43 1013.3
20260905174710 37 175 1.6 1.6 0.00 0.00 0.00 41 1013.5
20260905174206 37 179 1.6 1.6 0.00 0.00 0.00 43 1013.5
20260905173702 37 176 1.6 1.6 0.00 0.00 0.00 46 1013.4
20260905173157 38 169 1.6 1.6 0.00 0.00 0.00 43 1013.6
20260905172657 38 175 0.0 0.0 0.00 0.00 0.00 42 1013.6
20260905172151 37 174 0.0 0.0 0.00 0.00 0.00 43 1013.7
20260905171647 37 160 0.0 0.0 0.00 0.00 0.00 43 1013.7
20260905171143 37 164 1.6 1.6 0.00 0.00 0.00 44 1013.8
20260905170640 37 177 0.0 1.6 0.00 0.00 0.00 45 1013.9
20260905170134 37 153 3.2 4.8 0.00 0.00 0.00 46 1013.9
20260905165628 37 166 0.0 1.6 0.00 0.00 0.00 48 1014.1
20260905165124 36 242 1.6 3.2 0.00 0.00 0.00 47 1014.1
20260905164619 36 129 1.6 3.2 0.00 0.00 0.00 50 1014.1
20260905164118 36 176 0.0 0.0 0.00 0.00 0.00 50 1014.0
20260905163615 36 172 0.0 1.6 0.00 0.00 0.00 49 1014.3
20260905163111 36 83 1.6 1.6 0.00 0.00 0.00 48 1014.3
20260905162607 36 24 3.2 3.2 0.00 0.00 0.00 49 1014.1
20260905162106 36 182 1.6 1.6 0.00 0.00 0.00 49 1014.3
20260905161606 36 180 3.2 3.2 0.00 0.00 0.00 50 1014.4
20260905161104 36 169 0.0 1.6 0.00 0.00 0.00 50 1014.2
20260905160603 36 171 0.0 1.6 0.00 0.00 0.00 50 1014.4
20260905155557 35 143 1.6 1.6 0.00 0.00 0.00 54 1014.5
20260905155055 35 169 0.0 0.0 0.00 0.00 0.00 54 1014.6
20260905154551 35 134 0.0 1.6 0.00 0.00 0.00 55 1014.4
20260905154046 35 167 1.6 1.6 0.00 0.00 0.00 56 1014.4
20260905153542 35 162 1.6 1.6 0.00 0.00 0.00 57 1014.4
20260905153042 34 139 1.6 1.6 0.00 0.00 0.00 58 1014.6
20260905152537 34 161 1.6 1.6 0.00 0.00 0.00 57 1014.4
20260905152032 34 161 1.6 1.6 0.00 0.00 0.00 57 1014.5
20260905151527 34 174 3.2 3.2 0.00 0.00 0.00 57 1014.5
20260905151022 34 163 0.0 0.0 0.00 0.00 0.00 58 1014.4
20260905150517 33 161 1.6 1.6 0.00 0.00 0.00 58 1014.4
20260905150016 33 171 0.0 0.0 0.00 0.00 0.00 61 1014.4
20260905145515 33 156 3.2 3.2 0.00 0.00 0.00 59 1014.4
20260905145014 32 165 0.0 1.6 0.00 0.00 0.00 62 1014.5
20260905144510 32 190 1.6 3.2 0.00 0.00 0.00 62 1014.5
20260905144008 32 169 0.0 0.0 0.00 0.00 0.00 63 1014.3
20260905143508 31 172 1.6 1.6 0.00 0.00 0.00 65 1014.4
20260905143003 31 173 1.6 1.6 0.00 0.00 0.00 66 1014.5
20260905142501 31 157 0.0 1.6 0.00 0.00 0.00 68 1014.5
20260905141957 31 171 0.0 0.0 0.00 0.00 0.00 67 1014.5
20260905141451 30 169 0.0 0.0 0.00 0.00 0.00 68 1014.3
20260905140948 30 184 1.6 1.6 0.00 0.00 0.00 68 1014.2
20260905140443 30 176 0.0 1.6 0.00 0.00 0.00 69 1014.3
20260905135941 30 178 0.0 1.6 0.00 0.00 0.00 71 1014.2
20260905135437 30 172 0.0 0.0 0.00 0.00 0.00 73 1014.3
20260905134933 29 174 0.0 0.0 0.00 0.00 0.00 73 1014.3
20260905134432 29 173 0.0 0.0 0.00 0.00 0.00 74 1014.2
20260905133932 29 173 0.0 0.0 0.00 0.00 0.00 73 1014.5
20260905133431 29 173 0.0 0.0 0.00 0.00 0.00 74 1014.1
20260905132932 28 174 0.0 0.0 0.00 0.00 0.00 72 1014.1
20260905132427 28 175 0.0 0.0 0.00 0.00 0.00 73 1014.3
20260905131922 28 174 0.0 0.0 0.00 0.00 0.00 74 1014.1
20260905131418 27 176 0.0 0.0 0.00 0.00 0.00 76 1013.9
20260905130918 27 172 0.0 0.0 0.00 0.00 0.00 79 1014.0
20260905130418 27 168 0.0 0.0 0.00 0.00 0.00 81 1014.0
20260905125917 26 168 0.0 0.0 0.00 0.00 0.00 84 1013.8
20260905125413 26 168 0.0 0.0 0.00 0.00 0.00 84 1014.0
20260905124908 26 168 0.0 0.0 0.00 0.00 0.00 85 1013.9
20260905124405 25 173 0.0 0.0 0.00 0.00 0.00 86 1013.9
20260905123904 25 173 0.0 0.0 0.00 0.00 0.00 86 1013.9
20260905123401 25 173 0.0 0.0 0.00 0.00 0.00 87 1013.9
20260905122856 25 173 0.0 0.0 0.00 0.00 0.00 87 1014.0
20260905122355 25 173 0.0 0.0 0.00 0.00 0.00 87 1013.9
20260905121851 25 175 0.0 0.0 0.00 0.00 0.00 87 1014.0
20260905121347 25 177 0.0 0.0 0.00 0.00 0.00 86 1013.9
20260905120845 25 167 0.0 0.0 0.00 0.00 0.00 86 1013.7
20260905120340 25 165 0.0 0.0 0.00 0.00 0.00 86 1013.6
20260905115835 25 164 0.0 0.0 0.00 0.00 0.00 86 1013.6
20260905115335 25 161 0.0 0.0 0.00 0.00 0.00 87 1013.8
20260905114835 24 166 0.0 0.0 0.00 0.00 0.00 87 1013.7
20260905114334 24 167 0.0 0.0 0.00 0.00 0.00 88 1013.6
20260905113833 24 164 0.0 0.0 0.00 0.00 0.00 89 1013.6
20260905113329 24 161 0.0 0.0 0.00 0.00 0.00 88 1013.8
20260905112825 25 165 0.0 0.0 0.00 0.00 0.00 88 1013.6
20260905112319 25 165 0.0 0.0 0.00 0.00 0.00 87 1013.5
20260905111815 25 163 0.0 0.0 0.00 0.00 0.00 87 1013.4
20260905111309 25 164 0.0 0.0 0.00 0.00 0.00 86 1013.4
20260905110808 25 164 0.0 0.0 0.00 0.00 0.00 85 1013.4
20260905110302 25 163 0.0 0.0 0.00 0.00 0.00 84 1013.4
20260905105758 25 164 0.0 0.0 0.00 0.00 0.00 83 1013.2
20260905105257 25 164 0.0 0.0 0.00 0.00 0.00 84 1013.1
20260905104751 25 164 0.0 0.0 0.00 0.00 0.00 84 1013.1
20260905104248 25 164 0.0 0.0 0.00 0.00 0.00 84 1013.0
20260905103747 25 166 0.0 0.0 0.00 0.00 0.00 83 1013.1
20260905103243 25 167 0.0 0.0 0.00 0.00 0.00 82 1013.3
20260905102738 25 168 0.0 0.0 0.00 0.00 0.00 82 1013.2
20260905102235 25 168 0.0 0.0 0.00 0.00 0.00 83 1013.3
20260905101734 25 168 0.0 0.0 0.00 0.00 0.00 81 1013.1
20260905101232 25 167 0.0 0.0 0.00 0.00 0.00 81 1013.2
20260905100728 26 167 0.0 0.0 0.00 0.00 0.00 82 1013.2
20260905100224 26 167 0.0 0.0 0.00 0.00 0.00 81 1013.1
20260905095724 26 167 0.0 0.0 0.00 0.00 0.00 80 1013.1
20260905095223 26 167 0.0 0.0 0.00 0.00 0.00 78 1013.2
20260905094718 26 174 0.0 0.0 0.00 0.00 0.00 78 1013.3
20260905094218 26 175 0.0 0.0 0.00 0.00 0.00 78 1013.1
20260905093713 26 173 0.0 0.0 0.00 0.00 0.00 77 1013.1
20260905093209 26 172 0.0 0.0 0.00 0.00 0.00 78 1013.2
20260905092704 26 169 0.0 0.0 0.00 0.00 0.00 78 1013.4
20260905092200 26 171 0.0 0.0 0.00 0.00 0.00 79 1013.3
20260905091659 26 172 0.0 0.0 0.00 0.00 0.00 79 1013.1
20260905091200 26 172 0.0 0.0 0.00 0.00 0.00 80 1013.2
20260905090659 25 172 0.0 0.0 0.00 0.00 0.00 81 1013.1
20260905090155 25 169 0.0 0.0 0.00 0.00 0.00 83 1013.0
20260905085653 25 168 0.0 0.0 0.00 0.00 0.00 85 1013.2
20260905085149 25 171 0.0 0.0 0.00 0.00 0.00 85 1013.3
20260905084648 25 171 0.0 0.0 0.00 0.00 0.00 84 1013.1
20260905084144 25 170 0.0 0.0 0.00 0.00 0.00 84 1013.1
20260905083644 25 171 0.0 0.0 0.00 0.00 0.00 84 1013.1
20260905083140 25 167 0.0 0.0 0.00 0.00 0.00 84 1013.2
20260905082636 25 166 0.0 0.0 0.00 0.00 0.00 85 1013.1
20260905082131 25 170 0.0 0.0 0.00 0.00 0.00 85 1013.3
20260905081631 25 170 0.0 0.0 0.00 0.00 0.00 86 1013.2
20260905081132 25 170 0.0 0.0 0.00 0.00 0.00 86 1013.1
20260905080626 25 170 0.0 0.0 0.00 0.00 0.00 86 1013.3
20260905080121 25 170 0.0 0.0 0.00 0.00 0.00 85 1013.3
20260905075620 25 170 0.0 0.0 0.00 0.00 0.00 85 1013.2
20260905075120 25 168 0.0 0.0 0.00 0.00 0.00 86 1013.2
20260905074619 25 168 0.0 0.0 0.00 0.00 0.00 87 1013.2
20260905074115 25 168 0.0 0.0 0.00 0.00 0.00 87 1013.2
20260905073610 25 165 0.0 0.0 0.00 0.00 0.00 88 1013.3
20260905073106 25 165 0.0 0.0 0.00 0.00 0.00 88 1013.2
20260905072605 25 165 0.0 0.0 0.00 0.00 0.00 88 1013.4
20260905072100 25 165 0.0 0.0 0.00 0.00 0.00 88 1013.3
20260905071557 25 165 0.0 0.0 0.00 0.00 0.00 88 1013.2
20260905071057 25 165 0.0 0.0 0.00 0.00 0.00 88 1013.3
20260905070552 25 165 0.0 0.0 0.00 0.00 0.00 88 1013.2
20260905070048 25 165 0.0 0.0 0.00 0.00 0.00 87 1013.0
20260905065546 25 165 0.0 0.0 0.00 0.00 0.00 87 1013.3
20260905065041 25 165 0.0 0.0 0.00 0.00 0.00 87 1013.2
20260905064542 25 165 0.0 0.0 0.00 0.00 0.00 86 1013.5
20260905064037 25 163 0.0 0.0 0.00 0.00 0.00 86 1013.3
20260905063536 26 163 0.0 0.0 0.00 0.00 0.00 85 1013.3
20260905063032 26 166 0.0 0.0 0.00 0.00 0.00 85 1013.6
20260905062533 26 170 0.0 0.0 0.00 0.00 0.00 84 1013.4
20260905062033 26 170 0.0 0.0 0.00 0.00 0.00 84 1013.5
20260905061528 26 170 0.0 0.0 0.00 0.00 0.00 84 1013.5
20260905061027 26 170 0.0 0.0 0.00 0.00 0.00 84 1013.6
20260905060523 26 175 0.0 0.0 0.00 0.00 0.00 84 1013.5
20260905060019 26 171 0.0 0.0 0.00 0.00 0.00 84 1013.5
20260905055517 26 167 0.0 0.0 0.00 0.00 0.00 84 1013.4
20260905055012 26 167 0.0 0.0 0.00 0.00 0.00 83 1013.6
20260905054508 26 167 0.0 0.0 0.00 0.00 0.00 83 1013.6
20260905054003 26 166 0.0 0.0 0.00 0.00 0.00 82 1013.6
20260905053457 26 166 0.0 0.0 0.00 0.00 0.00 82 1013.6
20260905052953 26 169 0.0 0.0 0.00 0.00 0.00 82 1013.5
20260905052452 26 174 0.0 0.0 0.00 0.00 0.00 82 1013.7
20260905051952 27 169 0.0 0.0 0.00 0.00 0.00 82 1013.5
20260905051447 27 169 0.0 0.0 0.00 0.00 0.00 81 1013.3
20260905050945 27 169 0.0 0.0 0.00 0.00 0.00 80 1013.5
20260905050440 27 169 0.0 0.0 0.00 0.00 0.00 78 1013.6
20260905045936 27 169 0.0 0.0 0.00 0.00 0.00 77 1013.5
20260905045431 28 169 0.0 0.0 0.00 0.00 0.00 74 1013.6
20260905044927 28 169 0.0 0.0 0.00 0.00 0.00 74 1013.6
20260905044421 28 168 0.0 0.0 0.00 0.00 0.00 73 1013.5
20260905043921 28 164 0.0 1.6 0.00 0.00 0.00 73 1013.7
20260905043420 28 164 0.0 0.0 0.00 0.00 0.00 74 1013.8
20260905042915 27 166 0.0 0.0 0.00 0.00 0.00 75 1013.7
20260905042410 27 164 0.0 0.0 0.00 0.00 0.00 77 1013.9
20260905041905 27 164 0.0 0.0 0.00 0.00 0.00 77 1013.8
20260905041401 28 167 0.0 0.0 0.00 0.00 0.00 76 1013.9
20260905040901 28 166 0.0 0.0 0.00 0.00 0.00 75 1013.9
20260905040401 28 163 0.0 0.0 0.00 0.00 0.00 74 1013.8